www.pogodaiklimat.ru

Погода и климат >> Архив погоды >> Пакистан >> Lahore City


ПОГОДА в Lahore City

  • Прогноз погоды в Lahore City
  • Монитор погоды в Lahore City
  • Климат города

АРХИВ ПОГОДЫ в Lahore City

Время (UTC), дата Ветер
(напр.,м/с)
 
Видим.   Явления Облачность Т
(С)
Тd
(С)
f
(%)
Тe
(С)
Тes
(С)
Комфортность P
(гПа)
Po
(гПа)
Тmin
(С)
Tmax
(С)
R
(мм)
R24
(мм)
S
(см)
21 18.06 ЮЗ 1 4000 м дым ясно +27.5 +22.4 74 +36 +36 очень
душно
998.9 975.1
00 19.06 СЗ 1 4000 м дым ясно +26.5 +23.6 84 +36 +36 очень
душно
998.8 974.9
03 19.06 штиль 0 4000 м дым ясно +29.0 +23.2 71 +39 +50 очень
душно
999.6 975.9 +26.0
06 19.06 штиль 0 4000 м мгла ясно +34.0 +20.8 46 +41 +69 опасность
перегрева
999.4 976.1
09 19.06 штиль 0 4000 м мгла ясно +36.5 +19.4 37 +42 +65 опасность
перегрева
998.1 1000.0
12 19.06 З 1 4000 м мгла ясно +37.5 +19.5 35 +42 +47 опасность
перегрева
996.7 1006.2 +38.1
15 19.06 штиль 0 4000 м мгла ясно +35.0 +19.3 40 +40 +40 очень
душно
997.3 997.0
18 19.06 штиль 0 4000 м мгла ясно +32.5 +20.7 50 +40 +40 очень
душно
998.3 974.8
21 19.06 штиль 0 4000 м дым ясно +31.0 +22.3 60 +40 +40 очень
душно
998.5 967.3
00 20.06 штиль 0 4000 м дым ясно +29.5 +23.0 68 +39 +39 очень
душно
999.1 975.4
03 20.06 штиль 0 4000 м дым ясно +32.0 +23.4 60 +43 +53 опасность
перегрева
1001.1 1000.0 +28.5
06 20.06 штиль 0 4000 м мгла ясно +36.0 +21.5 43 +44 +71 опасность
перегрева
1001.0 1006.9
09 20.06 ЮВ 1 4000 м мгла ясно +38.5 +21.1 37 +45 +66 опасность
перегрева
998.4 998.0
12 20.06 СВ 2 4000 м мгла {метель} 4/0
[Ac trans]
+36.0 +18.7 36 +40 +43 очень
душно
998.4 975.2 +40.5
15 20.06 ЮЗ 2 2000 м дым 8/3 1200 м
[Sc Ac trans]
+30.0 +19.1 52 +35 +35 очень
душно
1000.1 976.4
18 20.06 штиль 0 4000 м дым 8/4 1000 м
[Sc Ac trans]
+30.5 +20.9 57 +38 +38 очень
душно
999.9 976.2
21 20.06 штиль 0 4000 м дым 4/3 300 м
[Sc Ac trans]
+29.5 +20.5 58 +36 +36 очень
душно
999.5 1000.0
00 21.06 штиль 0 4000 м дым 5/4 300 м
[Sc Ac trans]
+28.5 +20.2 61 +35 +35 очень
душно
1000.1 993.2
03 21.06 штиль 0 4000 м мгла 3/3 1000 м
[Sc]
+33.0 +19.5 45 +39 +46 очень
душно
1001.7 978.2 +28.1
06 21.06 штиль 0 4000 м мгла ясно +38.0 +18.5 32 +42 +70 опасность
перегрева
1000.6 977.4
09 21.06 ЮЗ 1 4000 м мгла ясно +40.0 +17.3 27 +43 +63 опасность
перегрева
998.4 1000.0
12 21.06 ЮЗ 1 4000 м мгла ясно +40.0 +17.3 27 +43 +47 опасность
перегрева
996.7 973.8 +40.9
15 21.06 штиль 0 4000 м мгла ясно +37.0 +20.0 37 +43 +43 опасность
перегрева
996.6 965.3
18 21.06 ЮЗ 1 4000 м мгла ясно +34.0 +18.9 41 +39 +39 очень
душно
997.6 974.2
21 21.06 СЗ 1 4000 м мгла ясно +33.0 +20.4 48 +40 +40 очень
душно
997.9 1000.0
00 22.06 штиль 0 4000 м дым 8/3 1260 м
[Sc Ac trans]
+30.5 +21.7 59 +39 +39 очень
душно
998.3 992.4
03 22.06 штиль 0 4000 м дым 8/3 1260 м
[Sc Ac As]
+33.0 +21.3 50 +41 +44 опасность
перегрева
999.9 976.4 +24.5
06 22.06 штиль 0 4000 м мгла 8/3 1260 м
[Sc Ac As]
+35.5 +19.9 40 +41 +51 опасность
перегрева
1000.2 976.9
09 22.06 штиль 0 4000 м мгла 3/0
[Ac trans]
+38.0 +20.4 36 +44 +63 опасность
перегрева
998.4 998.0
12 22.06 штиль 0 4000 м мгла ясно +39.0 +18.9 31 +43 +48 опасность
перегрева
996.0 973.0 +40.2
15 22.06 штиль 0 4000 м мгла 3/0
[Ac trans]
+36.0 +19.7 39 +42 +42 опасность
перегрева
996.2 967.6
18 22.06 З 11 1000 м пыльная буря {гроза, метель} 9/5 900 м
[Cb cap Ac As]
+29.0 +18.2 52 +34 +34 очень
душно
1001.1 977.4
21 22.06 штиль 0 4000 м мгла {гроза, морось} 9/5 1200 м
[Sc As op]
+31.5 +18.5 46 +36 +36 очень
душно
997.6 998.0 0.0
00 23.06 штиль 0 4000 м зарница {гроза, морось} 9/8 300 м
[Cb cap As op]
+30.5 +17.2 45 +34 +34 очень
душно
997.9 991.3
03 23.06 ЮВ 1 4000 м гроза, ливневой дождь 10/10 300 м
[Cb cap As op]
+28.0 +19.6 60 +34 +34 очень
душно
1001.4 977.6 +26.3 2
06 23.06 штиль 0 4000 м мгла {гроза, дождь} 5/3 1200 м
[Sc Ac trans]
+34.0 +19.9 44 +40 +56 опасность
солнечного
удара
1000.7 977.3 0.2
09 23.06 штиль 0 4000 м мгла 4/0
[Ac trans]
+38.0 +19.5 34 +43 +61 опасность
перегрева
998.7 999.0
12 23.06 штиль 0 4000 м мгла ясно +38.0 +18.5 32 +42 +47 опасность
перегрева
996.6 973.5 +39.0
15 23.06 штиль 0 4000 м мгла ясно +35.0 +22.0 47 +44 +44 опасность
перегрева
996.8 965.3
18 23.06 штиль 0 4000 м мгла ясно +32.5 +21.5 52 +40 +40 очень
душно
997.7 974.2
21 23.06 штиль 0 4000 м дым ясно +32.0 +21.8 55 +41 +41 опасность
перегрева
997.7 1000.0
00 24.06 штиль 0 4000 м дым ясно +30.5 +21.7 59 +39 +39 очень
душно
997.9 992.0
03 24.06 штиль 0 4000 м дым ясно +31.3 +21.0 54 +28 +28 жарко 998.9 975.4 +27.9
06 24.06 штиль 0 50 км мгла ?/? +37.0 +20.0 37 +43 +43 опасность
перегрева
998.7 975.6
09 24.06 З 2 4000 м мгла ясно +40.0 +19.3 30 +44 +62 опасность
перегрева
996.4 996.0
12 24.06 СЗ 4 4000 м мгла ясно +40.0 +17.3 27 +43 +45 опасность
перегрева
994.4 971.6 +41.0
18 24.06 З 1 4000 м мгла 6/4 300 м
[Sc Ac trans]
+35.5 +21.7 45 +44 +44 опасность
перегрева
995.5 972.3
21 24.06 ЮЗ 1 4000 м дым 6/3 1200 м
[Sc Ac trans]
+33.5 +22.7 53 +43 +43 опасность
перегрева
995.3 995.0
00 25.06 штиль 0 4000 м дым 4/0
[Ac trans]
+32.0 +21.8 55 +41 +41 опасность
перегрева
995.6 972.2
03 25.06 ЮЗ 1 4000 м дым 8/3 1000 м
[Sc Ac trans]
+32.5 +21.5 52 +40 +44 очень
душно
997.1 973.6 +31.1
06 25.06 ЮЗ 3 4000 м мгла 4/1 1000 м
[Sc Ac trans]
+38.0 +18.5 32 +42 +54 опасность
перегрева
995.7 972.8
09 25.06 ЮЗ 1 4000 м мгла ясно +40.5 +20.0 31 +46 +66 опасность
перегрева
993.2 1000.0
12 25.06 ЮЗ 1 4000 м мгла ясно +41.5 +18.5 27 +45 +50 опасность
перегрева
990.8 968.1 +42.2
15 25.06 штиль 0 4000 м мгла ясно +39.0 +19.9 33 +44 +44 опасность
перегрева
989.9 1000.0
18 25.06 ЮЗ 1 4000 м мгла ясно +36.5 +21.2 41 +44 +44 опасность
перегрева
992.1 969.1

 

Местоположение метеостанции Lahore City (Пакистан): широта 31.55 долгота 74.33 высота над уровнем моря 215 м.

В архиве по умолчанию представлена погода в Lahore City за последнюю неделю. Архивные данные за месяц целиком и за предыдущие месяцы, начиная с января 2011 года, Вы можете получить, выбрав интересующий диапазон дат из раскрывающегося списка и нажав кнопку "Ввод!".


*Определитесь, кто Вы:
робот инопланетянин человек

Внимание! Время в таблицах - всемирное. Для получения местного времени необходимо прибавить поправку, которая в Lahore City равна 5 ч.

Смотрите также архив погоды в соседних городах и на ближайших метеорологических станциях:

Погода в Amritsar (Punjab, Индия) (52 км)
Погода в Sialkot (Пакистан) (107 км)
Погода в Faisal Abad (Пакистан) (117 км)
Погода в Jammu (Jammu and Kashmir, Индия) (133 км)
Погода в Jhelum (Пакистан) (164 км)
Погода в Sargodha (Пакистан) (166 км)
Погода в Katra (Jammu and Kashmir, Индия) (170 км)
Погода в Ludhiana (Punjab, Индия) (170 км)
Погода в Una (Himachal Pradesh, Индия) (184 км)
Погода в Sri Ganganagar (Rajasthan, Индия) (185 км)

Пояснения к столбцам:

Ветер - указаны скорость ветра в м/с - средняя за 10 мин, порывы в срок и между сроками (в фигурных скобках) и направление, откуда дует ветер: С - северный, СВ - северо-восточный, В - восточный, ЮВ - юго-восточный, Ю - южный, ЮЗ - юго-западный, З - западный, СЗ - северо-западный.
Видимость - горизонтальная дальность видимости в метрах или километрах. При видимости от 1 до 10 км при отсутствии осадков обычно наблюдается дымка, при ухудшении видимости до 1 км и менее - туман. В сухую погоду видимость может ухудшаться дымом, пылью или мглою.
Явления - указаны атмосферные явления, наблюдавшиеся в срок или в последний час перед сроком; фигурными скобками обозначены явления, наблюдавшиеся между сроками (за 1-3 часа до срока); квадратными скобками обозначены град или гололедные отложения с указанием их диаметра в мм.
Облачность - указаны через наклонную черту общая и нижняя облачность в баллах и высота нижней границы облаков в метрах; квадратными скобками обозначены формы облаков: Ci - перистые, Cs - перисто-слоистые, Cc - перисто-кучевые, Ac - высококучевые, As - высокослоистые, Sc - слоисто-кучевые, Ns - слоисто-дождевые, Cu - кучевые, Cb - кучево-дождевые. Подробнее классификацию облаков см. в Атласе облаков (PDF).
T - Температура воздуха - температура, измеренная на высоте 2 м над землей.
Td - Температура точки росы - температура, при понижении до которой содержащийся в воздухе водяной пар достигнет насыщения.
f - Относительная влажность воздуха - влажноcть воздуха, измеренная на высоте 2 м над землей.
Te - Эффективная температура - температура, которую ощущает одетый по сезону человек в тени. Характеристика душности погоды. При расчете учитывается влияние влажности воздуха и скорости ветра на теплоощущения человека.
Tes - Эффективная температура на солнце - температура, которую ощущает человек, с поправкой на солнечный нагрев. Характеристика знойности погоды. Зависит от высоты солнца над горизонтом, облачности и скорости ветра. Ночью, в пасмурную погоду, а также при ветре 12 м/с и более поправка равна нулю.
P - Атмосферное давление - приведенное к уровню моря атмосферное давление.
Po - Атмосферное давление - измеренное на уровне метеостанции атмосферное давление.
Tmin - Минимальная температура - минимум температуры воздуха на высоте 2 м над землей.
Tmax - Максимальная температура - максимум температуры воздуха на высоте 2 м над землей.
R - Количество осадков - Количество выпавших осадков за период времени, мм. При наведении курсора мыши на число - период времени, за который выпало указанное количество осадков.
R24 - Количество осадков - Количество выпавших осадков за 24 часа, мм.
S - Снежный покров - Высота снежного покрова, см. При наведении курсора мыши на число - состояние снежного покрова и степень покрытия местности в баллах.